Time,TemperatureF,DewpointF,PressureIn,WindDirection,WindDirectionDegrees,WindSpeedMPH,WindSpeedGustMPH,Humidity,HourlyPrecipIn,Conditions,Clouds,dailyrainin,SoftwareType,DateUTC
2013-10-28 00:13:00,56.0,54.0,30.00,North,0,0.0,0.0,92,0.00,,,0.00,,2013-10-28 05:13:00,
2013-10-28 00:22:00,56.0,54.0,30.00,North,0,0.0,0.0,93,0.00,,,0.00,,2013-10-28 05:22:00,
2013-10-28 00:53:00,56.0,54.0,30.00,North,0,0.0,0.0,93,0.00,,,0.00,,2013-10-28 05:53:00,
2013-10-28 01:12:00,56.0,54.0,29.99,North,0,0.0,0.0,93,0.00,,,0.00,,2013-10-28 06:12:00,
2013-10-28 01:22:00,56.0,54.0,30.00,North,0,0.0,0.0,93,0.00,,,0.00,,2013-10-28 06:22:00,
2013-10-28 01:43:00,56.0,54.0,30.00,North,0,0.0,0.0,93,0.00,,,0.00,,2013-10-28 06:43:00,
2013-10-28 01:52:00,56.0,54.0,30.00,North,0,0.0,0.0,93,0.00,,,0.00,,2013-10-28 06:52:00,
2013-10-28 02:22:00,56.0,54.0,30.00,North,0,0.0,0.0,93,0.00,,,0.00,,2013-10-28 07:22:00,
2013-10-28 02:32:00,56.0,54.0,30.00,North,0,0.0,0.0,93,0.00,,,0.00,,2013-10-28 07:32:00,
2013-10-28 02:52:00,56.0,54.0,30.00,North,0,0.0,0.0,94,0.00,,,0.00,,2013-10-28 07:52:00,
2013-10-28 03:22:00,56.0,54.0,30.00,North,0,0.0,0.0,94,0.00,,,0.00,,2013-10-28 08:22:00,
2013-10-28 03:52:00,56.0,54.0,30.00,North,0,0.0,0.0,94,0.00,,,0.00,,2013-10-28 08:52:00,
2013-10-28 04:22:00,56.0,54.0,30.00,North,0,0.0,0.0,94,0.00,,,0.00,,2013-10-28 09:22:00,
2013-10-28 04:53:00,56.0,55.0,30.01,North,0,0.0,0.0,95,0.00,,,0.00,,2013-10-28 09:53:00,
2013-10-28 05:23:00,56.0,55.0,30.02,North,0,0.0,0.0,95,0.00,,,0.00,,2013-10-28 10:23:00,
2013-10-28 05:53:00,56.0,55.0,30.03,North,0,0.0,0.0,95,0.00,,,0.00,,2013-10-28 10:53:00,
2013-10-28 06:12:00,56.0,55.0,30.03,North,0,0.0,0.0,95,0.00,,,0.00,,2013-10-28 11:12:00,
2013-10-28 06:22:00,56.0,55.0,30.04,North,0,0.0,0.0,96,0.00,,,0.00,,2013-10-28 11:22:00,
2013-10-28 06:42:00,56.0,55.0,30.04,North,0,0.0,0.0,96,0.00,,,0.00,,2013-10-28 11:42:00,
2013-10-28 06:52:00,56.0,55.0,30.05,North,0,0.0,0.0,96,0.00,,,0.00,,2013-10-28 11:52:00,
2013-10-28 07:21:00,56.0,55.0,30.06,North,0,0.0,0.0,96,0.00,,,0.00,,2013-10-28 12:21:00,
2013-10-28 07:42:00,56.0,55.0,30.07,North,0,0.0,0.0,96,0.00,,,0.00,,2013-10-28 12:42:00,
2013-10-28 07:52:00,55.0,54.0,30.08,North,0,0.0,0.0,96,0.00,,,0.00,,2013-10-28 12:52:00,
2013-10-28 08:11:00,55.0,54.0,30.09,North,0,0.0,0.0,96,0.00,,,0.00,,2013-10-28 13:11:00,
2013-10-28 08:22:00,55.0,54.0,30.10,North,0,0.0,0.0,96,0.00,,,0.00,,2013-10-28 13:22:00,
2013-10-28 08:42:00,55.0,54.0,30.10,North,0,0.0,0.0,96,0.00,,,0.00,,2013-10-28 13:42:00,
2013-10-28 08:52:00,56.0,55.0,30.11,North,0,0.0,0.0,96,0.00,,,0.00,,2013-10-28 13:52:00,
2013-10-28 09:22:00,57.0,56.0,30.13,East,90,0.0,1.0,96,0.00,,,0.00,,2013-10-28 14:22:00,
2013-10-28 09:42:00,57.0,56.0,30.13,ENE,76,0.0,1.0,96,0.00,,,0.00,,2013-10-28 14:42:00,
2013-10-28 09:52:00,58.0,56.0,30.14,NW,314,0.0,2.0,94,0.00,,,0.00,,2013-10-28 14:52:00,
2013-10-28 10:22:00,58.0,55.0,30.15,NW,306,0.0,3.0,91,0.00,,,0.00,,2013-10-28 15:22:00,
2013-10-28 10:43:00,58.0,55.0,30.15,NW,308,0.0,1.0,90,0.00,,,0.00,,2013-10-28 15:43:00,
2013-10-28 10:53:00,59.0,56.0,30.15,North,0,0.0,0.0,89,0.00,,,0.00,,2013-10-28 15:53:00,
2013-10-28 11:03:00,59.0,56.0,30.15,North,0,0.0,0.0,89,0.00,,,0.00,,2013-10-28 16:03:00,
2013-10-28 11:23:00,60.0,56.0,30.14,North,2,0.0,2.0,87,0.00,,,0.00,,2013-10-28 16:23:00,
2013-10-28 11:43:00,61.0,56.0,30.14,North,7,0.0,3.0,83,0.00,,,0.00,,2013-10-28 16:43:00,
2013-10-28 11:53:00,63.0,56.0,30.14,NE,55,0.0,6.0,79,0.00,,,0.00,,2013-10-28 16:53:00,
2013-10-28 12:12:00,64.0,56.0,30.14,NE,45,0.0,4.0,75,0.00,,,0.00,,2013-10-28 17:12:00,
2013-10-28 12:22:00,64.0,55.0,30.14,ENE,67,0.0,5.0,73,0.00,,,0.00,,2013-10-28 17:22:00,
2013-10-28 12:52:00,66.0,55.0,30.13,ENE,70,0.0,3.0,68,0.00,,,0.00,,2013-10-28 17:52:00,
2013-10-28 13:12:00,65.0,55.0,30.12,North,0,0.0,0.0,69,0.00,,,0.00,,2013-10-28 18:12:00,
2013-10-28 13:21:00,64.0,55.0,30.12,North,0,0.0,0.0,72,0.00,,,0.00,,2013-10-28 18:21:00,
2013-10-28 13:52:00,66.0,53.0,30.11,NNE,31,0.0,3.0,64,0.00,,,0.00,,2013-10-28 18:52:00,
2013-10-28 14:22:00,67.0,55.0,30.10,North,0,0.0,0.0,65,0.00,,,0.00,,2013-10-28 19:22:00,
2013-10-28 14:42:00,68.0,54.0,30.11,NNW,332,0.0,3.0,61,0.00,,,0.00,,2013-10-28 19:42:00,
2013-10-28 14:52:00,70.0,55.0,30.10,NNE,25,0.0,3.0,58,0.00,,,0.00,,2013-10-28 19:52:00,
2013-10-28 15:21:00,67.0,55.0,30.10,North,0,0.0,0.0,65,0.00,,,0.00,,2013-10-28 20:21:00,
2013-10-28 15:52:00,67.0,54.0,30.10,North,0,0.0,0.0,64,0.00,,,0.00,,2013-10-28 20:52:00,
2013-10-28 16:21:00,68.0,54.0,30.11,North,0,0.0,0.0,61,0.00,,,0.00,,2013-10-28 21:21:00,
2013-10-28 16:53:00,68.0,54.0,30.11,North,0,0.0,0.0,62,0.00,,,0.00,,2013-10-28 21:53:00,
2013-10-28 17:23:00,66.0,54.0,30.11,North,0,0.0,0.0,65,0.00,,,0.00,,2013-10-28 22:23:00,
2013-10-28 17:53:00,64.0,56.0,30.12,North,0,0.0,0.0,74,0.00,,,0.00,,2013-10-28 22:53:00,
2013-10-28 18:22:00,61.0,54.0,30.13,North,0,0.0,0.0,79,0.00,,,0.00,,2013-10-28 23:22:00,
2013-10-28 18:42:00,60.0,54.0,30.13,North,0,0.0,0.0,81,0.00,,,0.00,,2013-10-28 23:42:00,
2013-10-28 18:52:00,58.0,53.0,30.13,North,0,0.0,0.0,84,0.00,,,0.00,,2013-10-28 23:52:00,
2013-10-28 19:22:00,57.0,53.0,30.14,North,0,0.0,0.0,88,0.00,,,0.00,,2013-10-29 00:22:00,
2013-10-28 19:42:00,57.0,54.0,30.15,North,0,0.0,0.0,89,0.00,,,0.00,,2013-10-29 00:42:00,
2013-10-28 19:52:00,56.0,53.0,30.15,North,0,0.0,0.0,89,0.00,,,0.00,,2013-10-29 00:52:00,
2013-10-28 20:11:00,56.0,53.0,30.16,North,0,0.0,0.0,90,0.00,,,0.00,,2013-10-29 01:11:00,
2013-10-28 20:21:00,56.0,53.0,30.16,North,0,0.0,0.0,90,0.00,,,0.00,,2013-10-29 01:21:00,
2013-10-28 20:42:00,56.0,53.0,30.16,North,0,0.0,0.0,91,0.00,,,0.00,,2013-10-29 01:42:00,
2013-10-28 20:53:00,55.0,52.0,30.16,North,0,0.0,0.0,91,0.00,,,0.00,,2013-10-29 01:53:00,
2013-10-28 21:21:00,55.0,53.0,30.17,North,0,0.0,0.0,93,0.00,,,0.00,,2013-10-29 02:21:00,
2013-10-28 21:44:00,55.0,53.0,30.17,North,0,0.0,0.0,94,0.00,,,0.00,,2013-10-29 02:44:00,
2013-10-28 21:53:00,55.0,53.0,30.17,North,0,0.0,0.0,94,0.00,,,0.00,,2013-10-29 02:53:00,
2013-10-28 22:27:00,54.0,52.0,30.17,North,0,0.0,0.0,94,0.00,,,0.00,,2013-10-29 03:27:00,
2013-10-28 22:40:00,-999.0,-99.9,30.18,North,0,0.0,0.0,94,0.00,,,0.00,,2013-10-29 03:40:00,
2013-10-28 22:47:00,54.0,52.0,30.18,North,0,0.0,0.0,94,0.00,,,0.00,,2013-10-29 03:47:00,
2013-10-28 22:55:00,54.0,53.0,30.17,North,0,0.0,0.0,95,0.00,,,0.00,,2013-10-29 03:55:00,
2013-10-28 23:14:00,54.0,53.0,30.17,North,0,0.0,0.0,95,0.00,,,0.00,,2013-10-29 04:14:00,
2013-10-28 23:24:00,54.0,53.0,30.18,North,0,0.0,0.0,95,0.00,,,0.00,,2013-10-29 04:24:00,
2013-10-28 23:57:00,54.0,53.0,30.17,North,0,0.0,0.0,96,0.00,,,0.00,,2013-10-29 04:57:00,